sat.trackr.live / text

‹ back to catalog

STARLINK-31193

NORAD 58797 · 2024-012L

PAYLOAD ACTIVE UNKNOWN

§ Identity

Operator
Country
US
Launch date
2024-01-15
Launch site
AFETR
Launch vehicle
Mass (kg)
RCS (m²)

Purposes: comms

External: N2YO · Heavens-Above · Gunter

§ Orbital elements

Epoch: 2026-09-20T09:20:34.200672Z

Period
94.27 min
Inclination
43.0078°
Eccentricity
0.0002100
Mean motion
15.27580304 rev/d
Perigee alt
481.6 km
Apogee alt
484.5 km
Semi-major
6,861.2 km
B*
-1.4916e-5
RAAN
145.6106°
Arg perigee
263.6440°
Mean anomaly
96.4172°
Rev number
15,101

§ Raw data

STARLINK-311931 58797U 24012L   26263.38928473 -.00000673  00000+0 -14916-4 0  99902 58797  43.0078 145.6106 0002100 263.6440  96.4172 15.27580304151013

JSON: /api/v1/satellites/58797 · /tle

For live sub-satellite position, see the globe view (requires WebGL).

§ Visibility from observer

Set your observer location to see the next 7 days of passes ≥ 10°. The values pass through the URL so the page stays shareable.

No JS? Fill the form by hand. The geolocation button needs JavaScript.